When you browse on this site, cookies collect data to enhance your experience and personalize the content and advertising you see.
Visit our Privacy Policy to learn more. By continuing to use the site, you agree to this use of cookies and data.
  • In United Kingdom
  • List of Countries
  • For 7 days
  • Water Temperature
  • Weather Map
  • Weather Widgets
  • user-avatar
    Login

    Hourly Weather Gomel

    Today, 18 October, Friday

    Time Temperature Precipitation Wind Pressure Humidity
    00:00 +10°C° 0 mm 2 mps 753 mmHg 81%
    01:00 +10°C° 0 mm 2 mps 753 mmHg 83%
    02:00 +9°C° 0 mm 2 mps 753 mmHg 83%
    03:00 +9°C° 0 mm 2 mps 753 mmHg 84%
    04:00 +9°C° 0 mm 2 mps 753 mmHg 86%
    05:00 +9°C° 0 mm 1 mps 753 mmHg 87%
    06:00 +10°C° 0 mm 1 mps 753 mmHg 85%
    07:00 +10°C° 0 mm 1 mps 753 mmHg 83%
    08:00 +11°C° 0 mm 1 mps 753 mmHg 81%
    09:00 +13°C° 0 mm 1 mps 753 mmHg 74%
    10:00 +14°C° 0 mm 1 mps 753 mmHg 67%
    11:00 +16°C° 0 mm 2 mps 753 mmHg 61%
    12:00 +18°C° 0 mm 1 mps 753 mmHg 59%
    13:00 +18°C° 0 mm 1 mps 753 mmHg 56%
    14:00 +19°C° 0 mm 1 mps 753 mmHg 54%
    15:00 +18°C° 0 mm 1 mps 753 mmHg 59%
    16:00 +15°C° 0 mm 1 mps 752 mmHg 64%
    17:00 +13°C° 0 mm 0 mps 752 mmHg 69%
    18:00 +14°C° 0 mm 1 mps 752 mmHg 71%
    19:00 +13°C° 0 mm 1 mps 752 mmHg 73%
    20:00 +13°C° 0 mm 1 mps 752 mmHg 75%
    21:00 +13°C° 0 mm 2 mps 752 mmHg 76%
    22:00 +12°C° 0 mm 2 mps 753 mmHg 77%
    23:00 +12°C° 0 mm 2 mps 753 mmHg 78%

    Tomorrow, 19 October, Saturday

    Time Temperature Precipitation Wind Pressure Humidity
    00:00 +12°C° 0 mm 2 mps 753 mmHg 79%
    01:00 +10°C° 0 mm 2 mps 753 mmHg 79%
    02:00 +10°C° 0 mm 2 mps 753 mmHg 80%
    03:00 +10°C° 0 mm 2 mps 753 mmHg 80%
    04:00 +10°C° 0 mm 3 mps 753 mmHg 80%
    05:00 +10°C° 0 mm 3 mps 752 mmHg 80%
    06:00 +10°C° 0 mm 3 mps 753 mmHg 79%
    07:00 +11°C° 0 mm 3 mps 753 mmHg 77%
    08:00 +11°C° 0 mm 3 mps 753 mmHg 76%
    09:00 +13°C° 0 mm 3 mps 753 mmHg 72%
    10:00 +16°C° 0 mm 3 mps 753 mmHg 68%
    11:00 +17°C° 0 mm 3 mps 753 mmHg 64%
    12:00 +18°C° 0 mm 4 mps 753 mmHg 62%
    13:00 +19°C° 0 mm 4 mps 753 mmHg 59%
    14:00 +20°C° 0 mm 4 mps 753 mmHg 57%
    15:00 +19°C° 0 mm 4 mps 753 mmHg 63%
    16:00 +17°C° 0 mm 3 mps 753 mmHg 69%
    17:00 +16°C° 0 mm 3 mps 752 mmHg 74%
    18:00 +14°C° 0 mm 3 mps 753 mmHg 76%
    19:00 +14°C° 0 mm 3 mps 753 mmHg 78%
    20:00 +13°C° 0 mm 3 mps 753 mmHg 80%
    21:00 +13°C° 0 mm 3 mps 753 mmHg 80%
    22:00 +12°C° 0 mm 3 mps 753 mmHg 79%
    23:00 +12°C° 0 mm 3 mps 753 mmHg 79%

    Day after tomorrow, 20 October, Sunday

    Time Temperature Precipitation Wind Pressure Humidity
    00:00 +12°C° 0 mm 3 mps 753 mmHg 79%
    01:00 +11°C° 0 mm 3 mps 753 mmHg 79%
    02:00 +11°C° 0 mm 3 mps 753 mmHg 79%
    03:00 +11°C° 0 mm 3 mps 753 mmHg 78%
    04:00 +11°C° 0 mm 3 mps 753 mmHg 78%
    05:00 +11°C° 0 mm 3 mps 753 mmHg 78%
    06:00 +11°C° 0 mm 3 mps 753 mmHg 76%
    07:00 +12°C° 0 mm 3 mps 753 mmHg 74%
    08:00 +12°C° 0 mm 3 mps 753 mmHg 72%
    09:00 +14°C° 0 mm 4 mps 754 mmHg 66%
    10:00 +15°C° 0 mm 4 mps 754 mmHg 61%
    11:00 +17°C° 0 mm 4 mps 754 mmHg 56%
    12:00 +18°C° 0 mm 4 mps 754 mmHg 54%
    13:00 +19°C° 0 mm 4 mps 753 mmHg 53%
    14:00 +19°C° 0 mm 4 mps 753 mmHg 51%
    15:00 +18°C° 0 mm 4 mps 753 mmHg 55%
    16:00 +17°C° 0 mm 3 mps 753 mmHg 59%
    17:00 +16°C° 0 mm 3 mps 753 mmHg 64%
    18:00 +14°C° 0 mm 3 mps 753 mmHg 65%
    19:00 +14°C° 0 mm 3 mps 753 mmHg 67%
    20:00 +13°C° 0 mm 3 mps 753 mmHg 69%
    21:00 +13°C° 0 mm 3 mps 753 mmHg 70%
    22:00 +13°C° 0 mm 3 mps 753 mmHg 71%
    23:00 +12°C° 0 mm 3 mps 753 mmHg 71%

    21 October, Monday

    Time Temperature Precipitation Wind Pressure Humidity
    00:00 +12°C° 0 mm 3 mps 753 mmHg 74%
    01:00 +12°C° 0 mm 3 mps 753 mmHg 76%
    02:00 +12°C° 0 mm 2 mps 753 mmHg 78%
    03:00 +13°C° 0 mm 2 mps 753 mmHg 78%
    04:00 +13°C° 0 mm 2 mps 753 mmHg 78%
    05:00 +13°C° 0 mm 2 mps 753 mmHg 77%
    06:00 +13°C° 0 mm 2 mps 753 mmHg 78%
    07:00 +13°C° 0 mm 2 mps 753 mmHg 78%
    08:00 +13°C° 0 mm 3 mps 754 mmHg 78%
    09:00 +14°C° 0 mm 3 mps 754 mmHg 71%
    10:00 +17°C° 0 mm 3 mps 754 mmHg 65%
    11:00 +19°C° 0 mm 3 mps 754 mmHg 59%
    12:00 +19°C° 0 mm 3 mps 754 mmHg 57%
    13:00 +20°C° 0 mm 4 mps 753 mmHg 54%
    14:00 +21°C° 0 mm 4 mps 753 mmHg 51%
    15:00 +20°C° 0 mm 4 mps 753 mmHg 56%
    16:00 +18°C° 0 mm 3 mps 753 mmHg 60%
    17:00 +17°C° 0 mm 3 mps 752 mmHg 65%
    18:00 +16°C° 0 mm 3 mps 752 mmHg 65%
    19:00 +15°C° 0 mm 4 mps 752 mmHg 66%
    20:00 +15°C° 0 mm 4 mps 752 mmHg 66%
    21:00 +14°C° 0 mm 4 mps 752 mmHg 67%
    22:00 +14°C° 0 mm 4 mps 752 mmHg 68%
    23:00 +14°C° 0 mm 4 mps 752 mmHg 68%

    22 October, Tuesday

    Time Temperature Precipitation Wind Pressure Humidity
    00:00 +14°C° 0 mm 4 mps 752 mmHg 70%
    01:00 +13°C° 0 mm 4 mps 751 mmHg 71%
    02:00 +13°C° 0 mm 4 mps 751 mmHg 72%
    03:00 +13°C° 0 mm 4 mps 751 mmHg 76%
    04:00 +12°C° 0 mm 3 mps 751 mmHg 80%
    05:00 +12°C° 0 mm 3 mps 751 mmHg 83%
    06:00 +12°C° 0 mm 3 mps 751 mmHg 84%
    07:00 +12°C° 0 mm 3 mps 751 mmHg 85%
    08:00 +13°C° 0 mm 3 mps 751 mmHg 86%
    09:00 +14°C° 0 mm 4 mps 751 mmHg 81%
    10:00 +15°C° 0 mm 4 mps 751 mmHg 75%
    11:00 +18°C° 0 mm 4 mps 752 mmHg 69%
    12:00 +17°C° 0 mm 5 mps 752 mmHg 66%
    13:00 +17°C° 0 mm 5 mps 752 mmHg 62%
    14:00 +17°C° 0 mm 6 mps 752 mmHg 59%
    15:00 +16°C° 0 mm 6 mps 752 mmHg 61%
    16:00 +15°C° 0 mm 6 mps 752 mmHg 63%
    17:00 +14°C° 0 mm 5 mps 753 mmHg 66%
    18:00 +13°C° 0 mm 5 mps 753 mmHg 67%
    19:00 +13°C° 0 mm 5 mps 754 mmHg 68%
    20:00 +12°C° 0 mm 4 mps 754 mmHg 68%
    21:00 +12°C° 0 mm 4 mps 754 mmHg 72%
    22:00 +12°C° 0 mm 4 mps 754 mmHg 76%
    23:00 +12°C° 0 mm 4 mps 755 mmHg 79%

    23 October, Wednesday

    Time Temperature Precipitation Wind Pressure Humidity
    00:00 +11°C° 0 mm 4 mps 755 mmHg 83%
    01:00 +10°C° 0 mm 4 mps 755 mmHg 87%
    02:00 +9°C° 0 mm 3 mps 756 mmHg 91%
    03:00 +9°C° 0 mm 3 mps 756 mmHg 91%
    04:00 +9°C° 0 mm 3 mps 756 mmHg 90%
    05:00 +8°C° 0 mm 3 mps 757 mmHg 90%
    06:00 +8°C° 0 mm 3 mps 757 mmHg 88%
    07:00 +8°C° 0 mm 3 mps 757 mmHg 85%
    08:00 +8°C° 0 mm 3 mps 757 mmHg 83%
    09:00 +10°C° 0 mm 3 mps 758 mmHg 77%
    10:00 +11°C° 0 mm 3 mps 758 mmHg 70%
    11:00 +13°C° 0 mm 2 mps 758 mmHg 64%
    12:00 +13°C° 0 mm 2 mps 758 mmHg 61%
    13:00 +14°C° 0 mm 2 mps 758 mmHg 59%
    14:00 +14°C° 0 mm 2 mps 758 mmHg 56%
    15:00 +13°C° 0 mm 2 mps 758 mmHg 60%
    16:00 +12°C° 0 mm 2 mps 757 mmHg 65%
    17:00 +11°C° 0 mm 1 mps 757 mmHg 69%
    18:00 +10°C° 0 mm 1 mps 757 mmHg 71%
    19:00 +9°C° 0 mm 1 mps 758 mmHg 74%
    20:00 +9°C° 0 mm 1 mps 758 mmHg 76%
    21:00 +8°C° 0 mm 1 mps 758 mmHg 79%
    22:00 +8°C° 0 mm 1 mps 758 mmHg 82%
    23:00 +8°C° 0 mm 1 mps 758 mmHg 85%
    Show more